Weather History for Tyler, TX

Change the Weather History Date:

Thursday, October 25, 2012

  Actual Average Record
Temperature  
Mean Temperature 71 °F 64 °F  
Max Temperature 85 °F 75 °F 91 °F (1985)
Min Temperature 56 °F 53 °F 26 °F (1980)
Degree Days  
Heating Degree Days 0 4  
Month to date heating degree days 42 45  
Since 1 July heating degree days 44 50  
Cooling Degree Days 6 3  
Month to date cooling degree days 157 115  
Year to date cooling degree days 2971 2379  
Growing Degree Days 20 (Base 50)    
Moisture  
Dew Point 64 °F    
Average Humidity 69    
Maximum Humidity 90    
Minimum Humidity 48    
Precipitation  
Precipitation 0.00 in 0.17 in 2.21 in (1975)
Month to date precipitation 1.04 3.87  
Year to date precipitation 30.48 36.47  
Snow  
Snow 0.00 in - - ()
Month to date snowfall 0.0  
Since 1 July snowfall 0.0  
Since 1 September snowfall 0.0  
Snow Depth 0.00 in    
Sea Level Pressure  
Sea Level Pressure 29.92 in    
Wind  
Wind Speed 12 mph (SSW)    
Max Wind Speed 21 mph    
Max Gust Speed 28 mph    
Visibility 10 miles    
Events      
T = Trace of Precipitation, MM = Missing Value Source: NWS Daily Summary

Daily Weather History Graph

Daily Weather History Graph

Search for Another Location

Airport:

Trip Planner

Search our weather history database for the weather conditions in past years. The results will help you decide how hot, cold, wet, or windy it might be!

Date:

Astronomy

Oct. 25, 2012 Rise Set
Actual Time 7:33 AM CDT 6:37 PM CDT
Civil Twilight 7:08 AM CDT 7:02 PM CDT
Nautical Twilight 6:39 AM CDT 7:31 PM CDT
Astronomical Twilight 6:10 AM CDT 7:59 PM CDT
Moon 4:13 PM CDT 3:43 AM CDT
Length of Visible Light 11h 54m
Length of Day
11h 03m
Waxing Gibbous, 84% of the Moon is Illuminated
Oct 25
Waxing Gibbous
Oct 29
Full
Nov 6
Last Quarter
Nov 13
New
Nov 20
First Quarter

Hourly Weather History & Observations

Time (CDT) Temp. Heat Index Dew Point Humidity Pressure Visibility Wind Dir Wind Speed Gust Speed Precip Events Conditions
12:53 AM 72.0 °F - 66.9 °F 84% 29.88 in 10.0 mi South 13.8 mph - N/A   Clear
1:53 AM 72.0 °F - 66.9 °F 84% 29.86 in 10.0 mi South 11.5 mph - N/A   Clear
2:53 AM 70.0 °F - 66.0 °F 87% 29.86 in 10.0 mi South 13.8 mph - N/A   Clear
3:53 AM 69.1 °F - 64.0 °F 84% 29.86 in 10.0 mi South 10.4 mph - N/A   Clear
4:53 AM 68.0 °F - 64.0 °F 87% 29.86 in 10.0 mi SSW 9.2 mph - N/A   Scattered Clouds
5:53 AM 70.0 °F - 66.0 °F 87% 29.88 in 10.0 mi South 8.1 mph - N/A   Overcast
6:00 AM 69.8 °F - 66.2 °F 88% 29.89 in 10.0 mi South 10.4 mph - N/A   Overcast
6:53 AM 70.0 °F - 66.9 °F 90% 29.89 in 10.0 mi South 8.1 mph - N/A   Mostly Cloudy
7:25 AM 69.8 °F - 66.2 °F 88% 29.91 in 10.0 mi South 9.2 mph - N/A   Overcast
7:53 AM 71.1 °F - 66.9 °F 87% 29.89 in 9.0 mi South 11.5 mph - N/A   Overcast
8:53 AM 72.0 °F - 68.0 °F 87% 29.91 in 9.0 mi South 11.5 mph - N/A   Overcast
9:53 AM 73.0 °F - 68.0 °F 84% 29.93 in 10.0 mi SSW 15.0 mph 20.7 mph N/A   Overcast
10:06 AM 73.4 °F - 68.0 °F 83% 29.95 in 10.0 mi SSW 12.7 mph - N/A   Mostly Cloudy
10:38 AM 75.2 °F - 69.8 °F 83% 29.95 in 10.0 mi South 10.4 mph - N/A   Mostly Cloudy
10:45 AM 77.0 °F - 69.8 °F 78% 29.95 in 10.0 mi SSW 11.5 mph - N/A   Mostly Cloudy
10:53 AM 78.1 °F - 68.0 °F 71% 29.93 in 10.0 mi South 10.4 mph - N/A   Mostly Cloudy
11:10 AM 77.0 °F - 68.0 °F 74% 29.95 in 10.0 mi South 13.8 mph 21.9 mph N/A   Mostly Cloudy
11:24 AM 77.0 °F - 66.2 °F 69% 29.95 in 10.0 mi SSW 11.5 mph - N/A   Scattered Clouds
11:53 AM 78.1 °F - 68.0 °F 71% 29.93 in 10.0 mi SW 11.5 mph - N/A   Mostly Cloudy
12:05 PM 80.6 °F 83.2 °F 68.0 °F 65% 29.95 in 10.0 mi SSW 11.5 mph - N/A   Scattered Clouds
12:53 PM 82.9 °F 84.6 °F 64.9 °F 54% 29.91 in 10.0 mi SSW 16.1 mph 24.2 mph N/A   Clear
1:53 PM 84.0 °F 85.8 °F 64.9 °F 53% 29.89 in 10.0 mi South 13.8 mph - N/A   Partly Cloudy
2:53 PM 84.0 °F 84.9 °F 63.0 °F 49% 29.87 in 10.0 mi SSW 10.4 mph - N/A   Mostly Cloudy
3:53 PM 84.0 °F 84.9 °F 63.0 °F 49% 29.86 in 10.0 mi WSW 6.9 mph - N/A   Mostly Cloudy
4:53 PM 82.0 °F 83.4 °F 64.0 °F 54% 29.87 in 10.0 mi West 3.5 mph - N/A   Overcast
5:53 PM 81.0 °F 82.5 °F 64.0 °F 56% 29.87 in 10.0 mi Calm Calm - N/A   Mostly Cloudy
6:53 PM 77.0 °F - 66.9 °F 71% 29.89 in 10.0 mi North 20.7 mph 24.2 mph N/A   Overcast
7:45 PM 62.6 °F - 57.2 °F 82% 29.96 in 10.0 mi NNW 13.8 mph - N/A   Mostly Cloudy
7:53 PM 62.1 °F - 55.9 °F 80% 29.95 in 10.0 mi NNW 16.1 mph 24.2 mph N/A   Mostly Cloudy
8:53 PM 59.0 °F - 53.1 °F 81% 29.98 in 10.0 mi North 17.3 mph 24.2 mph N/A   Overcast
9:53 PM 57.9 °F - 51.1 °F 78% 30.00 in 10.0 mi North 18.4 mph 24.2 mph N/A   Overcast
10:29 PM 57.2 °F - 48.2 °F 72% 30.03 in 10.0 mi North 15.0 mph 24.2 mph N/A   Overcast
10:53 PM 57.0 °F - 48.0 °F 72% 30.02 in 10.0 mi North 18.4 mph 21.9 mph N/A   Overcast